Satellite: RS-39 Catalog number: 38051 Epoch time: 14249.80255410 Element set: 887 Inclination: 051.6218 deg RA of node: 168.4133 deg Eccentricity: 0.0007452 Arg of perigee: 156.4384 deg Mean anomaly: 301.2736 deg Mean motion: 15.74672625 rev/day Decay rate: 2.07561e-03 rev/day^2 Epoch rev: 14690 Checksum: 310
Satellite: E-STAR Catalog number: 38079 Epoch time: 14249.81115867 Element set: 960 Inclination: 069.4539 deg RA of node: 134.6013 deg Eccentricity: 0.0331641 Arg of perigee: 236.0707 deg Mean anomaly: 120.8639 deg Mean motion: 15.19747774 rev/day Decay rate: 7.7850e-04 rev/day^2 Epoch rev: 13581 Checksum: 330
Satellite: GOLIAT Catalog number: 38085 Epoch time: 14249.83493738 Element set: 332 Inclination: 069.4579 deg RA of node: 143.6983 deg Eccentricity: 0.0359229 Arg of perigee: 240.5074 deg Mean anomaly: 239.1194 deg Mean motion: 15.12899398 rev/day Decay rate: 6.6413e-04 rev/day^2 Epoch rev: 13558 Checksum: 356
Satellite: HORYU-2 Catalog number: 38340 Epoch time: 14249.35247871 Element set: 955 Inclination: 098.2696 deg RA of node: 207.9657 deg Eccentricity: 0.0011164 Arg of perigee: 281.7074 deg Mean anomaly: 078.2874 deg Mean motion: 14.72734501 rev/day Decay rate: 1.509e-05 rev/day^2 Epoch rev: 12374 Checksum: 325
Satellite: RS-40 Catalog number: 38735 Epoch time: 14248.64215434 Element set: 666 Inclination: 082.4723 deg RA of node: 237.3695 deg Eccentricity: 0.0018454 Arg of perigee: 079.9373 deg Mean anomaly: 280.3780 deg Mean motion: 12.42561085 rev/day Decay rate: 2.4e-07 rev/day^2 Epoch rev: 9557 Checksum: 322
Satellite: PROITERES Catalog number: 38756 Epoch time: 14249.73096911 Element set: 182 Inclination: 098.2275 deg RA of node: 339.3593 deg Eccentricity: 0.0013778 Arg of perigee: 122.2654 deg Mean anomaly: 237.9891 deg Mean motion: 14.75068388 rev/day Decay rate: 6.36e-06 rev/day^2 Epoch rev: 10720 Checksum: 335
Satellite: BEESAT-3 Catalog number: 39134 Epoch time: 14249.48459063 Element set: 692 Inclination: 064.8678 deg RA of node: 241.0951 deg Eccentricity: 0.0033481 Arg of perigee: 293.2295 deg Mean anomaly: 066.5293 deg Mean motion: 15.05992423 rev/day Decay rate: 5.668e-05 rev/day^2 Epoch rev: 7590 Checksum: 337
Satellite: BEESAT-2 Catalog number: 39136 Epoch time: 14249.38466711 Element set: 676 Inclination: 064.8680 deg RA of node: 242.1511 deg Eccentricity: 0.0033634 Arg of perigee: 294.1176 deg Mean anomaly: 065.6424 deg Mean motion: 15.05286000 rev/day Decay rate: 4.779e-05 rev/day^2 Epoch rev: 7587 Checksum: 313
Satellite: LO-75 Catalog number: 39382 Epoch time: 14249.57998816 Element set: 393 Inclination: 040.4923 deg RA of node: 320.0151 deg Eccentricity: 0.0020957 Arg of perigee: 102.7017 deg Mean anomaly: 257.6235 deg Mean motion: 15.57255466 rev/day Decay rate: 1.42855e-03 rev/day^2 Epoch rev: 4468 Checksum: 330
Satellite: ZACUBE-1 Catalog number: 39417 Epoch time: 14249.19733852 Element set: 394 Inclination: 097.7649 deg RA of node: 317.0149 deg Eccentricity: 0.0061937 Arg of perigee: 341.3411 deg Mean anomaly: 018.5659 deg Mean motion: 14.78302371 rev/day Decay rate: 9.00e-06 rev/day^2 Epoch rev: 4266 Checksum: 316
Satellite: TRITON-1 Catalog number: 39427 Epoch time: 14248.68716925 Element set: 245 Inclination: 097.7545 deg RA of node: 310.7023 deg Eccentricity: 0.0118157 Arg of perigee: 354.9479 deg Mean anomaly: 005.0503 deg Mean motion: 14.65558962 rev/day Decay rate: 9.24e-06 rev/day^2 Epoch rev: 4218 Checksum: 321
Satellite: DELFIN3XT Catalog number: 39428 Epoch time: 14249.40645780 Element set: 250 Inclination: 097.7536 deg RA of node: 310.3689 deg Eccentricity: 0.0127905 Arg of perigee: 355.3645 deg Mean anomaly: 004.6340 deg Mean motion: 14.63569574 rev/day Decay rate: 1.616e-05 rev/day^2 Epoch rev: 4221 Checksum: 310
Satellite: GOMX-1 Catalog number: 39430 Epoch time: 14249.76127960 Element set: 783 Inclination: 097.7503 deg RA of node: 307.8709 deg Eccentricity: 0.0156441 Arg of perigee: 002.0076 deg Mean anomaly: 358.1682 deg Mean motion: 14.56994073 rev/day Decay rate: 8.61e-06 rev/day^2 Epoch rev: 4209 Checksum: 318
Satellite: MO-76 Catalog number: 39436 Epoch time: 14249.17847713 Element set: 318 Inclination: 097.7735 deg RA of node: 321.6024 deg Eccentricity: 0.0023830 Arg of perigee: 344.1187 deg Mean anomaly: 015.9295 deg Mean motion: 14.91605827 rev/day Decay rate: 1.0118e-04 rev/day^2 Epoch rev: 4294 Checksum: 320
Satellite: LO-74 Catalog number: 39440 Epoch time: 14249.23216114 Element set: 246 Inclination: 097.7621 deg RA of node: 314.7389 deg Eccentricity: 0.0084183 Arg of perigee: 345.0833 deg Mean anomaly: 014.7871 deg Mean motion: 14.73238957 rev/day Decay rate: 1.019e-05 rev/day^2 Epoch rev: 4251 Checksum: 309
Satellite: PUCPSAT-1 Catalog number: 39442 Epoch time: 14249.49690563 Element set: 245 Inclination: 097.7737 deg RA of node: 320.8996 deg Eccentricity: 0.0034268 Arg of perigee: 340.7827 deg Mean anomaly: 019.2090 deg Mean motion: 14.86377513 rev/day Decay rate: 1.844e-05 rev/day^2 Epoch rev: 4170 Checksum: 331
Satellite: SHINAISAT Catalog number: 39572 Epoch time: 14249.46266240 Element set: 276 Inclination: 065.0060 deg RA of node: 119.3287 deg Eccentricity: 0.0020511 Arg of perigee: 277.7464 deg Mean anomaly: 082.1460 deg Mean motion: 15.77321894 rev/day Decay rate: 7.2295e-04 rev/day^2 Epoch rev: 2989 Checksum: 313
Satellite: TEIKYOSAT Catalog number: 39576 Epoch time: 14249.80348797 Element set: 289 Inclination: 065.0036 deg RA of node: 114.7331 deg Eccentricity: 0.0020280 Arg of perigee: 280.3155 deg Mean anomaly: 079.5721 deg Mean motion: 15.84831991 rev/day Decay rate: 1.23939e-03 rev/day^2 Epoch rev: 3001 Checksum: 308
Satellite: CO-77 Catalog number: 39577 Epoch time: 14244.78324653 Element set: 379 Inclination: 064.9920 deg RA of node: 123.7668 deg Eccentricity: 0.0014904 Arg of perigee: 269.7208 deg Mean anomaly: 091.1897 deg Mean motion: 16.43552757 rev/day Decay rate: 1.0543803e-01 rev/day^2 Epoch rev: 2938 Checksum: 363
Satellite: SPROUT Catalog number: 39770 Epoch time: 14249.32124086 Element set: 119 Inclination: 097.8721 deg RA of node: 345.2379 deg Eccentricity: 0.0011235 Arg of perigee: 054.5752 deg Mean anomaly: 305.6516 deg Mean motion: 14.82736876 rev/day Decay rate: 1.152e-05 rev/day^2 Epoch rev: 1556 Checksum: 302
Satellite: POPSAT-HIP1 Catalog number: 40028 Epoch time: 14249.80910324 Element set: 231 Inclination: 097.9764 deg RA of node: 144.6055 deg Eccentricity: 0.0016207 Arg of perigee: 032.9540 deg Mean anomaly: 327.2689 deg Mean motion: 14.85232103 rev/day Decay rate: 1.557e-05 rev/day^2 Epoch rev: 1169 Checksum: 284
Satellite: EO-80 Catalog number: 40032 Epoch time: 14249.75386950 Element set: 222 Inclination: 097.9731 deg RA of node: 144.4828 deg Eccentricity: 0.0013867 Arg of perigee: 028.3583 deg Mean anomaly: 331.8399 deg Mean motion: 14.85004910 rev/day Decay rate: 1.609e-05 rev/day^2 Epoch rev: 1169 Checksum: 317
Satellite: VELOX-1 Catalog number: 40057 Epoch time: 14249.78456156 Element set: 215 Inclination: 098.2463 deg RA of node: 318.1381 deg Eccentricity: 0.0013228 Arg of perigee: 066.9462 deg Mean anomaly: 293.3124 deg Mean motion: 14.74111857 rev/day Decay rate: 1.550e-05 rev/day^2 Epoch rev: 1010 Checksum: 278
Satellite: DAURIA DX 1 Catalog number: 40071 Epoch time: 14249.78405222 Element set: 186 Inclination: 098.3968 deg RA of node: 304.0987 deg Eccentricity: 0.0010274 Arg of perigee: 071.2353 deg Mean anomaly: 288.9963 deg Mean motion: 14.79568615 rev/day Decay rate: 6.94e-06 rev/day^2 Epoch rev: 887 Checksum: 335
Satellite: UKUBE-1 Catalog number: 40074 Epoch time: 14249.81583411 Element set: 188 Inclination: 098.3974 deg RA of node: 304.2254 deg Eccentricity: 0.0006598 Arg of perigee: 079.4199 deg Mean anomaly: 280.7741 deg Mean motion: 14.80493563 rev/day Decay rate: 1.495e-05 rev/day^2 Epoch rev: 888 Checksum: 335
Satellite: CHASQUI-1 Catalog number: 40117 Epoch time: 14249.69939872 Element set: 70 Inclination: 051.6474 deg RA of node: 055.4686 deg Eccentricity: 0.0003708 Arg of perigee: 098.5766 deg Mean anomaly: 346.8456 deg Mean motion: 15.51769731 rev/day Decay rate: 4.6280e-04 rev/day^2 Epoch rev: 294 Checksum: 338
/EX